Location: Unspecified
(0.0000°N, 0.0000°E)
Time: 02:23:24
(UTC+00:00)

ISS - Visible Passes

Search period start: 25 July 2016 00:00
Search period end: 04 August 2016 00:00
Orbit: 401 x 404 km, 51.6° (Epoch: 24 July)

Date Brightness Start Highest point End Pass type
(mag) Time Alt. Az. Time Alt. Az. Time Alt. Az.
26 Jul 0.0 19:09:58 10° W 19:11:54 15° NW 19:13:49 10° NNW visible
29 Jul -1.5 04:56:42 10° NNW 04:59:40 34° NE 05:02:39 10° ESE visible
30 Jul 0.0 04:05:14 10° NNE 04:06:46 13° NE 04:08:19 10° E visible
30 Jul -1.8 05:40:39 10° W 05:43:00 18° SW 05:45:21 10° S visible
31 Jul -2.9 04:50:41 44° SSW 04:50:41 44° SSW 04:53:18 10° SSE visible
